Location: Fornova de Taro
(44.7000°N, 10.1000°E)
Time: 02:36:29
(UTC+00:00)

Cosmos 1943 - Pass Details

Date: 26 May 2022
Orbit: 834 x 849 km, 71.0° (Epoch: 26 June)

Event Time Altitude Azimuth Distance (km) Brightness Sun altitude
Exits shadow 02:50:41 - 216° (SW) 2,555 5.1 -8.1°
Reaches altitude 10° 02:50:55 10° 216° (SW) 2,468 5.0 -8.1°
Maximum altitude 02:56:33 65° 298° (WNW) 930 3.4 -7.3°
Drops below altitude 10° 03:02:13 10° 21° (NNE) 2,479 6.7 -6.5°
Sets 03:04:42 0° 24° (NNE) 3,416 7.6 -6.2°
